QPF
0.00 0.00 0.00 0.00 0.00 0.00 0.00 0.00 0.00 0.00 0.00 0.00 0.00 0.00 0.00 0.00 0.00 0.00 0.00 0.00 0.00 0.00 0.00 0.00 0.00 0.00 0.00 0.00 0.00 0.00 0.00 0.00 0.00 0.00 0.00 0.00 0.00 0.00 0.00 0.00 0.00 0.00 0.00 0.00 0.00 0.00 0.00 0.00 0.00
0.00 0.00 0.00 0.00 0.00 0.00 0.00 0.00 0.00 0.00 0.00 0.00 0.00 0.00 0.00 0.00 0.00 0.00 0.00 0.00 0.00 0.00 0.00 0.00 0.00 0.00 0.00 0.00 0.00 0.00 0.00 0.00 0.00 0.00 0.00 0.00 0.00 0.00 0.00 0.00 0.00 0.00 0.00 0.00 0.00 0.00 0.00 0.00 0.00
0.00 0.00 0.00 0.00 0.00 0.00 0.00 0.00 0.00 0.00 0.00 0.00 0.00 0.00 0.00 0.00 0.00 0.00 0.00 0.00 0.00 0.00 0.00 0.00 0.00 0.00 0.00 0.00 0.00 0.00 0.00 0.00 0.00 0.00 0.00 0.00 0.00 0.00 0.00 0.00 0.00 0.00 0.00 0.00 0.00 0.00 0.00 0.00 0.00
0.00 0.00 0.00 0.00 0.00 0.00 0.00 0.00 0.00 0.00 0.00 0.00 0.00 0.00 0.00 0.00 0.00 0.00 0.00 0.00 0.00 0.00 0.00 0.00 0.00 0.00 0.00 0.00 0.00 0.00 0.00 0.00 0.00 0.00 0.01 0.01 0.00 0.00 0.00 0.00 0.00 0.00 0.00 0.00 0.00 0.00 0.00 0.00 0.00
0.00 0.00 0.00 0.00 0.00 0.00 0.00 0.00 0.00 0.00 0.00 0.00 0.00 0.00 0.00 0.00 0.00 0.00 0.00 0.00 0.00 0.00 0.00 0.00 0.00 0.00 0.00 0.00 0.00 0.00 0.00 0.00 0.00 0.01 0.01 0.01 0.00 0.00 0.00 0.00 0.00 0.00 0.00 0.00 0.00 0.00 0.00 0.00 0.00
0.00 0.00 0.00 0.00 0.00 0.00 0.00 0.00 0.00 0.00 0.00 0.00 0.00 0.00 0.00 0.00 0.00 0.00 0.00 0.00 0.00 0.00 0.00 0.00 0.00 0.00 0.00 0.00 0.00 0.00 0.00 0.00 0.00 0.01 0.01 0.01 0.00 0.00 0.00 0.00 0.00 0.00 0.00 0.00 0.00 0.00 0.00 0.00 0.00
0.00 0.00 0.00 0.00 0.00 0.00 0.00 0.00 0.00 0.00 0.00 0.00 0.00 0.00 0.00 0.00 0.00 0.00 0.00 0.00 0.00 0.00 0.00 0.00 0.00 0.00 0.00 0.00 0.00 0.00 0.00 0.00 0.00 0.01 0.01 0.01 0.00 0.00 0.00 0.00 0.00 0.00 0.00 0.00 0.00 0.00 0.00 0.00 0.00
0.00 0.00 0.00 0.00 0.00 0.00 0.00 0.00 0.00 0.00 0.00 0.00 0.00 0.00 0.00 0.00 0.00 0.00 0.00 0.00 0.00 0.00 0.00 0.00 0.00 0.00 0.00 0.00 0.00 0.00 0.00 0.00 0.00 0.01 0.01 0.01 0.00 0.00 0.00 0.00 0.00 0.00 0.00 0.00 0.00 0.00 0.00 0.00 0.00
0.00 0.00 0.00 0.00 0.00 0.00 0.00 0.00 0.00 0.00 0.00 0.00 0.00 0.00 0.00 0.00 0.00 0.00 0.00 0.00 0.00 0.00 0.00 0.00 0.00 0.00 0.00 0.00 0.00 0.00 0.00 0.00 0.00 0.01 0.01 0.00 0.00 0.00 0.00 0.00 0.00 0.00 0.00 0.00 0.00 0.00 0.00 0.00 0.00
0.00 0.00 0.00 0.00 0.00 0.00 0.00 0.00 0.00 0.00 0.00 0.00 0.00 0.00 0.00 0.00 0.00 0.00 0.00 0.00 0.00 0.00 0.00 0.00 0.00 0.00 0.00 0.00 0.00 0.00 0.00 0.00 0.00 0.00 0.01 0.01 0.00 0.00 0.00 0.00 0.00 0.00 0.00 0.00 0.00 0.00 0.00 0.00 0.00
0.00 0.00 0.00 0.00 0.00 0.00 0.00 0.00 0.00 0.00 0.00 0.00 0.00 0.00 0.00 0.00 0.00 0.00 0.00 0.00 0.00 0.00 0.00 0.00 0.00 0.00 0.00 0.00 0.00 0.00 0.00 0.00 0.00 0.00 0.00 0.00 0.00 0.00 0.00 0.00 0.00 0.00 0.00 0.00 0.00 0.00 0.00 0.00 0.00
0.00 0.00 0.00 0.00 0.00 0.00 0.00 0.00 0.00 0.00 0.00 0.00 0.00 0.00 0.00 0.00 0.00 0.00 0.00 0.00 0.00 0.00 0.00 0.00 0.00 0.00 0.00 0.00 0.00 0.00 0.00 0.00 0.00 0.00 0.00 0.01 0.00 0.00 0.00 0.00 0.00 0.00 0.00 0.00 0.00 0.00 0.00 0.00 0.00
0.00 0.00 0.00 0.00 0.00 0.00 0.00 0.00 0.00 0.00 0.00 0.00 0.00 0.00 0.00 0.00 0.00 0.00 0.00 0.00 0.00 0.00 0.00 0.00 0.00 0.00 0.00 0.00 0.00 0.00 0.00 0.00 0.00 0.00 0.00 0.00 0.00 0.00 0.00 0.00 0.00 0.00 0.00 0.00 0.00 0.00 0.00 0.00 0.00
0.00 0.00 0.00 0.00 0.00 0.00 0.00 0.00 0.00 0.00 0.00 0.00 0.00 0.00 0.00 0.00 0.00 0.00 0.00 0.00 0.00 0.00 0.00 0.00 0.00 0.00 0.00 0.00 0.00 0.00 0.00 0.00 0.00 0.01 0.01 0.01 0.01 0.00 0.00 0.00 0.00 0.00 0.00 0.00 0.00 0.00 0.00 0.00 0.00
0.00 0.00 0.00 0.00 0.00 0.00 0.00 0.00 0.00 0.00 0.00 0.00 0.00 0.00 0.00 0.00 0.00 0.00 0.00 0.00 0.00 0.00 0.00 0.00 0.00 0.00 0.00 0.00 0.00 0.00 0.00 0.00 0.00 0.01 0.01 0.01 0.01 0.01 0.00 0.00 0.00 0.00 0.00 0.00 0.00 0.00 0.00 0.00 0.00
0.00 0.00 0.00 0.00 0.00 0.00 0.00 0.00 0.00 0.00 0.00 0.00 0.00 0.00 0.00 0.00 0.00 0.00 0.00 0.00 0.00 0.00 0.00 0.00 0.00 0.00 0.00 0.00 0.00 0.00 0.00 0.00 0.00 0.00 0.01 0.01 0.01 0.01 0.01 0.00 0.00 0.00 0.00 0.00 0.00 0.00 0.00 0.00 0.00
0.00 0.00 0.00 0.00 0.00 0.00 0.00 0.00 0.00 0.00 0.00 0.00 0.00 0.00 0.00 0.00 0.00 0.00 0.00 0.00 0.00 0.00 0.00 0.00 0.00 0.00 0.00 0.00 0.00 0.00 0.00 0.00 0.00 0.00 0.01 0.01 0.01 0.01 0.01 0.01 0.00 0.00 0.00 0.00 0.00 0.00 0.00 0.00 0.00
0.00 0.00 0.00 0.00 0.00 0.00 0.00 0.00 0.00 0.00 0.00 0.00 0.00 0.00 0.00 0.00 0.00 0.00 0.00 0.00 0.00 0.00 0.00 0.00 0.00 0.00 0.00 0.00 0.00 0.00 0.00 0.00 0.00 0.00 0.00 0.01 0.01 0.01 0.01 0.00 0.00 0.00 0.00 0.00 0.00 0.00 0.00 0.00 0.00
0.00 0.00 0.00 0.00 0.00 0.00 0.00 0.00 0.00 0.00 0.00 0.00 0.00 0.00 0.00 0.00 0.00 0.00 0.00 0.00 0.00 0.00 0.00 0.00 0.00 0.00 0.00 0.00 0.00 0.00 0.00 0.00 0.00 0.00 0.00 0.00 0.01 0.01 0.01 0.01 0.00 0.00 0.00 0.00 0.00 0.00 0.00 0.00 0.00
0.00 0.00 0.00 0.00 0.00 0.00 0.00 0.00 0.00 0.00 0.00 0.00 0.00 0.00 0.00 0.00 0.00 0.00 0.00 0.00 0.00 0.00 0.00 0.00 0.00 0.00 0.00 0.00 0.00 0.00 0.00 0.00 0.00 0.00 0.00 0.00 0.00 0.00 0.01 0.01 0.01 0.00 0.00 0.00 0.00 0.00 0.00 0.00 0.00
0.00 0.00 0.00 0.00 0.00 0.00 0.00 0.00 0.00 0.00 0.00 0.00 0.00 0.00 0.00 0.00 0.00 0.00 0.00 0.00 0.00 0.00 0.00 0.00 0.00 0.00 0.00 0.00 0.00 0.00 0.00 0.00 0.00 0.00 0.00 0.00 0.00 0.00 0.00 0.00 0.01 0.01 0.00 0.00 0.00 0.00 0.00 0.00 0.00
0.00 0.00 0.00 0.00 0.00 0.00 0.00 0.00 0.00 0.00 0.00 0.00 0.00 0.00 0.00 0.00 0.00 0.00 0.00 0.00 0.00 0.00 0.00 0.00 0.00 0.00 0.00 0.00 0.00 0.00 0.00 0.00 0.00 0.00 0.00 0.00 0.00 0.00 0.00 0.00 0.00 0.00 0.00 0.00 0.00 0.00 0.00 0.00 0.00
0.00 0.00 0.00 0.00 0.00 0.00 0.00 0.00 0.00 0.00 0.00 0.00 0.00 0.00 0.00 0.00 0.00 0.00 0.00 0.00 0.00 0.00 0.00 0.00 0.00 0.00 0.00 0.00 0.00 0.00 0.00 0.00 0.00 0.00 0.00 0.00 0.00 0.00 0.00 0.00 0.00 0.00 0.00 0.00 0.00 0.00 0.00 0.00 0.00
0.00 0.00 0.00 0.00 0.00 0.00 0.00 0.00 0.00 0.00 0.00 0.00 0.00 0.00 0.00 0.00 0.00 0.00 0.00 0.00 0.00 0.00 0.00 0.00 0.00 0.00 0.00 0.00 0.00 0.00 0.00 0.00 0.00 0.00 0.00 0.00 0.00 0.00 0.00 0.00 0.00 0.00 0.00 0.00 0.00 0.00 0.00 0.00 0.00
0.00 0.00 0.00 0.00 0.00 0.00 0.00 0.00 0.00 0.00 0.00 0.00 0.00 0.00 0.00 0.00 0.00 0.00 0.00 0.00 0.00 0.00 0.00 0.00 0.00 0.00 0.00 0.00 0.00 0.00 0.00 0.00 0.00 0.00 0.00 0.00 0.00 0.00 0.00 0.00 0.00 0.00 0.00 0.00 0.00 0.00 0.00 0.00 0.00
0.00 0.00 0.00 0.00 0.00 0.00 0.00 0.00 0.00 0.00 0.00 0.00 0.00 0.00 0.00 0.00 0.00 0.00 0.00 0.00 0.00 0.00 0.00 0.00 0.00 0.00 0.00 0.00 0.00 0.00 0.00 0.00 0.00 0.00 0.00 0.00 0.00 0.00 0.00 0.00 0.00 0.00 0.00 0.00 0.00 0.00 0.00 0.00 0.00
0.00 0.00 0.00 0.00 0.00 0.00 0.00 0.00 0.00 0.00 0.00 0.00 0.00 0.00 0.00 0.00 0.00 0.00 0.00 0.00 0.00 0.00 0.00 0.00 0.00 0.00 0.00 0.00 0.00 0.00 0.00 0.00 0.00 0.00 0.00 0.00 0.00 0.00 0.00 0.00 0.00 0.00 0.00 0.00 0.00 0.00 0.00 0.00 0.00
0.00 0.00 0.00 0.00 0.00 0.00 0.00 0.00 0.00 0.00 0.00 0.00 0.00 0.00 0.00 0.00 0.00 0.00 0.00 0.00 0.00 0.00 0.00 0.00 0.00 0.00 0.00 0.00 0.00 0.00 0.00 0.00 0.00 0.00 0.00 0.00 0.00 0.00 0.00 0.00 0.00 0.00 0.00 0.00 0.00 0.00 0.00 0.00 0.00
0.00 0.00 0.00 0.00 0.00 0.00 0.00 0.00 0.00 0.00 0.00 0.00 0.00 0.00 0.00 0.00 0.00 0.00 0.00 0.00 0.00 0.00 0.00 0.00 0.00 0.00 0.00 0.00 0.00 0.00 0.00 0.00 0.00 0.00 0.00 0.00 0.00 0.00 0.00 0.00 0.00 0.00 0.00 0.00 0.00 0.00 0.00 0.00 0.00
0.00 0.00 0.00 0.00 0.01 0.01 0.02 0.01 0.00 0.00 0.00 0.00 0.00 0.00 0.00 0.00 0.00 0.00 0.00 0.00 0.00 0.00 0.00 0.00 0.00 0.00 0.00 0.00 0.00 0.00 0.00 0.00 0.00 0.00 0.00 0.00 0.00 0.00 0.00 0.00 0.00 0.00 0.00 0.00 0.00 0.00 0.00 0.00 0.00
MSLP
1015.53 1016.29 1017.23 1018.22 1019.13 1019.82 1020.24 1020.35 1020.17 1019.79 1019.29 1018.78 1018.32 1017.94 1017.64 1017.40 1017.17 1016.91 1016.63 1016.33 1016.06 1015.85 1015.76 1015.82 1016.03 1016.35 1016.72 1017.09 1017.42 1017.67 1017.85 1017.97 1018.07 1018.20 1018.37 1018.59 1018.85 1019.12 1019.36 1019.55 1019.67 1019.75 1019.79 1019.82 1019.87 1019.94 1020.02 1020.10 1020.15
1016.02 1016.91 1017.91 1018.87 1019.66 1020.17 1020.35 1020.20 1019.78 1019.20 1018.56 1017.96 1017.48 1017.12 1016.88 1016.70 1016.55 1016.36 1016.15 1015.91 1015.70 1015.56 1015.53 1015.65 1015.91 1016.26 1016.67 1017.07 1017.41 1017.68 1017.88 1018.03 1018.18 1018.35 1018.56 1018.82 1019.10 1019.37 1019.61 1019.79 1019.90 1019.96 1020.00 1020.03 1020.07 1020.14 1020.22 1020.30 1020.34
1016.63 1017.59 1018.57 1019.44 1020.06 1020.35 1020.29 1019.91 1019.30 1018.57 1017.84 1017.22 1016.76 1016.45 1016.28 1016.18 1016.10 1015.98 1015.82 1015.63 1015.47 1015.38 1015.40 1015.56 1015.86 1016.24 1016.67 1017.07 1017.42 1017.70 1017.91 1018.08 1018.24 1018.43 1018.67 1018.94 1019.23 1019.51 1019.75 1019.92 1020.03 1020.09 1020.13 1020.17 1020.23 1020.30 1020.39 1020.46 1020.50
1017.33 1018.29 1019.19 1019.91 1020.34 1020.41 1020.14 1019.57 1018.82 1018.02 1017.27 1016.67 1016.26 1016.03 1015.93 1015.89 1015.85 1015.77 1015.64 1015.49 1015.36 1015.31 1015.37 1015.57 1015.89 1016.28 1016.71 1017.11 1017.45 1017.72 1017.92 1018.09 1018.25 1018.45 1018.69 1018.96 1019.26 1019.53 1019.76 1019.94 1020.06 1020.14 1020.21 1020.27 1020.35 1020.45 1020.55 1020.63 1020.66
1018.06 1018.96 1019.74 1020.29 1020.52 1020.40 1019.96 1019.27 1018.46 1017.63 1016.92 1016.39 1016.04 1015.88 1015.83 1015.82 1015.80 1015.73 1015.60 1015.46 1015.35 1015.31 1015.40 1015.61 1015.95 1016.35 1016.77 1017.15 1017.47 1017.71 1017.90 1018.06 1018.22 1018.41 1018.64 1018.91 1019.20 1019.47 1019.71 1019.90 1020.05 1020.16 1020.26 1020.37 1020.49 1020.62 1020.73 1020.82 1020.87
1018.74 1019.55 1020.18 1020.56 1020.62 1020.35 1019.79 1019.05 1018.23 1017.46 1016.82 1016.36 1016.09 1015.97 1015.94 1015.94 1015.89 1015.79 1015.64 1015.48 1015.36 1015.34 1015.43 1015.66 1016.00 1016.39 1016.80 1017.16 1017.46 1017.68 1017.85 1018.00 1018.15 1018.34 1018.57 1018.83 1019.12 1019.40 1019.64 1019.86 1020.03 1020.19 1020.34 1020.49 1020.65 1020.81 1020.95 1021.06 1021.11
1019.29 1019.98 1020.47 1020.69 1020.61 1020.24 1019.65 1018.91 1018.15 1017.45 1016.91 1016.53 1016.32 1016.23 1016.20 1016.15 1016.06 1015.90 1015.71 1015.51 1015.38 1015.34 1015.44 1015.67 1016.00 1016.38 1016.77 1017.12 1017.40 1017.61 1017.78 1017.92 1018.08 1018.28 1018.51 1018.79 1019.07 1019.36 1019.62 1019.85 1020.06 1020.25 1020.45 1020.64 1020.84 1021.03 1021.20 1021.32 1021.39
1019.65 1020.23 1020.58 1020.68 1020.51 1020.09 1019.49 1018.81 1018.13 1017.54 1017.10 1016.81 1016.64 1016.56 1016.50 1016.40 1016.24 1016.02 1015.77 1015.53 1015.37 1015.32 1015.41 1015.62 1015.94 1016.31 1016.67 1017.00 1017.27 1017.49 1017.67 1017.83 1018.02 1018.24 1018.50 1018.79 1019.09 1019.38 1019.66 1019.91 1020.14 1020.36 1020.58 1020.81 1021.03 1021.25 1021.43 1021.58 1021.66
1019.82 1020.28 1020.53 1020.53 1020.30 1019.86 1019.30 1018.69 1018.12 1017.64 1017.30 1017.08 1016.95 1016.87 1016.77 1016.63 1016.41 1016.14 1015.84 1015.57 1015.37 1015.30 1015.36 1015.55 1015.83 1016.16 1016.50 1016.81 1017.08 1017.31 1017.51 1017.72 1017.95 1018.21 1018.51 1018.83 1019.15 1019.46 1019.74 1020.00 1020.25 1020.49 1020.72 1020.97 1021.21 1021.44 1021.64 1021.79 1021.89
1019.84 1020.20 1020.35 1020.27 1020.00 1019.57 1019.06 1018.53 1018.05 1017.68 1017.43 1017.27 1017.19 1017.11 1017.01 1016.84 1016.59 1016.29 1015.96 1015.67 1015.45 1015.34 1015.35 1015.49 1015.71 1015.98 1016.27 1016.55 1016.81 1017.06 1017.30 1017.55 1017.84 1018.16 1018.50 1018.86 1019.21 1019.53 1019.83 1020.10 1020.35 1020.59 1020.84 1021.09 1021.34 1021.58 1021.79 1021.95 1022.05
1019.78 1020.05 1020.11 1019.98 1019.67 1019.25 1018.78 1018.31 1017.92 1017.64 1017.46 1017.38 1017.34 1017.31 1017.23 1017.07 1016.84 1016.54 1016.21 1015.90 1015.65 1015.49 1015.44 1015.48 1015.61 1015.80 1016.01 1016.24 1016.48 1016.73 1017.00 1017.31 1017.65 1018.03 1018.43 1018.82 1019.20 1019.55 1019.86 1020.14 1020.40 1020.65 1020.91 1021.16 1021.42 1021.66 1021.88 1022.04 1022.16
1019.75 1019.93 1019.91 1019.72 1019.38 1018.95 1018.50 1018.08 1017.74 1017.52 1017.42 1017.41 1017.44 1017.48 1017.47 1017.38 1017.20 1016.95 1016.64 1016.32 1016.03 1015.80 1015.65 1015.58 1015.58 1015.65 1015.76 1015.92 1016.11 1016.36 1016.65 1016.99 1017.38 1017.81 1018.24 1018.67 1019.08 1019.45 1019.78 1020.08 1020.36 1020.63 1020.90 1021.18 1021.45 1021.71 1021.93 1022.11 1022.23
1019.82 1019.92 1019.83 1019.57 1019.19 1018.73 1018.27 1017.87 1017.57 1017.40 1017.36 1017.43 1017.56 1017.70 1017.79 1017.81 1017.73 1017.55 1017.28 1016.96 1016.62 1016.30 1016.02 1015.79 1015.65 1015.57 1015.56 1015.63 1015.77 1015.98 1016.27 1016.63 1017.05 1017.49 1017.95 1018.41 1018.83 1019.22 1019.58 1019.90 1020.22 1020.53 1020.84 1021.15 1021.46 1021.74 1021.99 1022.18 1022.31
1020.04 1020.07 1019.90 1019.58 1019.14 1018.64 1018.15 1017.74 1017.46 1017.33 1017.36 1017.51 1017.76 1018.03 1018.26 1018.41 1018.45 1018.35 1018.11 1017.78 1017.39 1016.95 1016.53 1016.15 1015.83 1015.60 1015.47 1015.44 1015.51 1015.69 1015.96 1016.31 1016.72 1017.16 1017.61 1018.06 1018.48 1018.88 1019.26 1019.63 1019.99 1020.35 1020.73 1021.10 1021.47 1021.79 1022.07 1022.29 1022.43
1020.37 1020.34 1020.11 1019.73 1019.23 1018.69 1018.17 1017.75 1017.47 1017.38 1017.47 1017.72 1018.08 1018.49 1018.87 1019.17 1019.32 1019.29 1019.10 1018.75 1018.27 1017.73 1017.16 1016.63 1016.16 1015.79 1015.55 1015.43 1015.45 1015.58 1015.81 1016.13 1016.50 1016.90 1017.32 1017.72 1018.12 1018.52 1018.91 1019.31 1019.72 1020.16 1020.61 1021.05 1021.48 1021.87 1022.20 1022.44 1022.59
1020.75 1020.66 1020.39 1019.96 1019.43 1018.86 1018.32 1017.88 1017.62 1017.56 1017.72 1018.07 1018.55 1019.09 1019.61 1020.03 1020.28 1020.32 1020.14 1019.76 1019.22 1018.57 1017.88 1017.22 1016.63 1016.17 1015.85 1015.68 1015.65 1015.75 1015.94 1016.21 1016.51 1016.84 1017.18 1017.51 1017.85 1018.21 1018.59 1019.01 1019.47 1019.97 1020.49 1021.02 1021.52 1021.97 1022.34 1022.61 1022.79
1021.05 1020.94 1020.65 1020.21 1019.67 1019.10 1018.56 1018.14 1017.90 1017.89 1018.12 1018.55 1019.14 1019.79 1020.43 1020.95 1021.27 1021.35 1021.18 1020.76 1020.16 1019.43 1018.66 1017.91 1017.27 1016.76 1016.42 1016.24 1016.20 1016.27 1016.43 1016.63 1016.85 1017.07 1017.30 1017.53 1017.78 1018.06 1018.41 1018.82 1019.30 1019.83 1020.40 1020.99 1021.54 1022.04 1022.46 1022.77 1022.97
1021.19 1021.08 1020.81 1020.40 1019.89 1019.36 1018.86 1018.48 1018.29 1018.34 1018.63 1019.14 1019.81 1020.55 1021.26 1021.84 1022.21 1022.31 1022.13 1021.69 1021.05 1020.28 1019.47 1018.71 1018.07 1017.58 1017.26 1017.11 1017.09 1017.16 1017.28 1017.41 1017.54 1017.64 1017.73 1017.83 1017.96 1018.14 1018.41 1018.78 1019.24 1019.77 1020.36 1020.96 1021.54 1022.07 1022.51 1022.84 1023.07
1021.12 1021.04 1020.83 1020.49 1020.07 1019.61 1019.19 1018.89 1018.76 1018.87 1019.22 1019.78 1020.50 1021.29 1022.05 1022.66 1023.05 1023.16 1022.98 1022.53 1021.88 1021.12 1020.33 1019.61 1019.02 1018.60 1018.36 1018.26 1018.28 1018.37 1018.46 1018.53 1018.55 1018.53 1018.48 1018.43 1018.42 1018.49 1018.65 1018.94 1019.33 1019.81 1020.36 1020.94 1021.50 1022.01 1022.45 1022.79 1023.03
1020.85 1020.83 1020.71 1020.48 1020.18 1019.85 1019.54 1019.33 1019.29 1019.45 1019.85 1020.44 1021.19 1021.99 1022.75 1023.38 1023.77 1023.88 1023.71 1023.28 1022.66 1021.95 1021.23 1020.59 1020.10 1019.78 1019.63 1019.62 1019.69 1019.79 1019.87 1019.88 1019.81 1019.67 1019.48 1019.30 1019.15 1019.09 1019.13 1019.30 1019.59 1019.98 1020.44 1020.93 1021.43 1021.88 1022.28 1022.61 1022.85
1020.44 1020.52 1020.52 1020.44 1020.28 1020.10 1019.92 1019.82 1019.85 1020.07 1020.49 1021.09 1021.83 1022.61 1023.36 1023.97 1024.36 1024.48 1024.33 1023.95 1023.40 1022.77 1022.15 1021.63 1021.26 1021.05 1021.00 1021.07 1021.19 1021.30 1021.35 1021.32 1021.17 1020.94 1020.65 1020.35 1020.09 1019.91 1019.83 1019.88 1020.04 1020.30 1020.62 1020.99 1021.36 1021.71 1022.03 1022.31 1022.53
1020.02 1020.20 1020.35 1020.42 1020.43 1020.40 1020.35 1020.35 1020.45 1020.70 1021.12 1021.70 1022.40 1023.15 1023.86 1024.45 1024.83 1024.98 1024.87 1024.57 1024.11 1023.60 1023.10 1022.70 1022.44 1022.34 1022.37 1022.48 1022.63 1022.74 1022.78 1022.70 1022.51 1022.22 1021.87 1021.50 1021.16 1020.89 1020.72 1020.64 1020.67 1020.77 1020.94 1021.14 1021.35 1021.57 1021.78 1021.97 1022.15
1019.68 1019.99 1020.28 1020.51 1020.68 1020.78 1020.85 1020.92 1021.07 1021.32 1021.72 1022.26 1022.90 1023.59 1024.26 1024.82 1025.21 1025.39 1025.36 1025.14 1024.80 1024.41 1024.04 1023.76 1023.59 1023.56 1023.63 1023.77 1023.91 1024.01 1024.02 1023.92 1023.71 1023.40 1023.03 1022.65 1022.28 1021.97 1021.72 1021.55 1021.45 1021.41 1021.40 1021.42 1021.47 1021.52 1021.59 1021.68 1021.79
1019.52 1019.94 1020.36 1020.74 1021.03 1021.24 1021.38 1021.51 1021.66 1021.90 1022.25 1022.73 1023.31 1023.94 1024.56 1025.10 1025.51 1025.74 1025.78 1025.67 1025.46 1025.19 1024.93 1024.74 1024.65 1024.65 1024.74 1024.86 1024.98 1025.05 1025.03 1024.92 1024.71 1024.42 1024.07 1023.72 1023.37 1023.06 1022.78 1022.55 1022.35 1022.17 1022.01 1021.86 1021.73 1021.62 1021.54 1021.51 1021.53
1019.53 1020.06 1020.59 1021.06 1021.44 1021.71 1021.90 1022.04 1022.18 1022.38 1022.67 1023.08 1023.59 1024.16 1024.75 1025.28 1025.71 1026.00 1026.13 1026.14 1026.04 1025.88 1025.73 1025.61 1025.56 1025.58 1025.64 1025.73 1025.81 1025.84 1025.80 1025.68 1025.49 1025.24 1024.96 1024.66 1024.37 1024.09 1023.82 1023.55 1023.28 1023.00 1022.71 1022.41 1022.12 1021.86 1021.65 1021.49 1021.41
1019.68 1020.29 1020.89 1021.42 1021.84 1022.13 1022.32 1022.44 1022.54 1022.69 1022.93 1023.27 1023.73 1024.25 1024.81 1025.35 1025.81 1026.16 1026.39 1026.49 1026.51 1026.46 1026.39 1026.33 1026.30 1026.31 1026.35 1026.39 1026.42 1026.41 1026.35 1026.24 1026.08 1025.88 1025.67 1025.44 1025.21 1024.98 1024.73 1024.46 1024.15 1023.80 1023.41 1023.00 1022.59 1022.21 1021.87 1021.61 1021.42
1019.91 1020.57 1021.19 1021.72 1022.12 1022.39 1022.54 1022.62 1022.69 1022.79 1022.98 1023.28 1023.70 1024.20 1024.75 1025.30 1025.79 1026.21 1026.51 1026.71 1026.82 1026.86 1026.86 1026.85 1026.85 1026.85 1026.86 1026.86 1026.85 1026.80 1026.73 1026.62 1026.49 1026.34 1026.19 1026.03 1025.86 1025.67 1025.45 1025.18 1024.85 1024.46 1024.01 1023.53 1023.04 1022.57 1022.15 1021.79 1021.52
1020.14 1020.80 1021.40 1021.88 1022.22 1022.42 1022.52 1022.55 1022.57 1022.64 1022.81 1023.10 1023.51 1024.00 1024.56 1025.13 1025.66 1026.13 1026.50 1026.77 1026.96 1027.07 1027.13 1027.16 1027.18 1027.19 1027.18 1027.16 1027.12 1027.05 1026.96 1026.86 1026.75 1026.63 1026.51 1026.39 1026.26 1026.10 1025.90 1025.63 1025.29 1024.87 1024.40 1023.89 1023.36 1022.85 1022.37 1021.96 1021.61
1020.35 1020.97 1021.48 1021.86 1022.10 1022.21 1022.23 1022.21 1022.21 1022.28 1022.46 1022.76 1023.19 1023.71 1024.28 1024.87 1025.43 1025.92 1026.34 1026.66 1026.90 1027.06 1027.17 1027.25 1027.29 1027.32 1027.32 1027.29 1027.25 1027.18 1027.09 1026.99 1026.88 1026.77 1026.66 1026.54 1026.41 1026.25 1026.03 1025.75 1025.41 1024.99 1024.51 1024.00 1023.47 1022.95 1022.46 1022.01 1021.62
1020.55 1021.07 1021.46 1021.70 1021.80 1021.81 1021.75 1021.70 1021.69 1021.78 1022.00 1022.35 1022.81 1023.36 1023.96 1024.56 1025.13 1025.63 1026.05 1026.39 1026.65 1026.85 1027.00 1027.11 1027.20 1027.25 1027.28 1027.28 1027.26 1027.20 1027.11 1027.01 1026.90 1026.77 1026.64 1026.50 1026.34 1026.14 1025.90 1025.60 1025.24 1024.82 1024.36 1023.86 1023.35 1022.85 1022.36 1021.91 1021.48
Thickness
5756 5756 5755 5745 5720 5696 5699 5710 5718 5722 5726 5733 5735 5731 5725 5720 5716 5714 5736 5741 5738 5734 5730 5726 5723 5721 5718 5716 5714 5712 5710 5709 5708 5707 5707 5706 5706 5706 5705 5705 5704 5703 5703 5703 5703 5703 5704 5704 5705
5756 5756 5748 5729 5702 5684 5698 5713 5719 5727 5734 5738 5737 5734 5729 5728 5736 5736 5739 5742 5740 5736 5731 5727 5724 5722 5719 5717 5715 5713 5711 5709 5708 5706 5705 5704 5704 5703 5703 5702 5701 5700 5700 5700 5700 5700 5700 5701 5702
5756 5753 5732 5713 5699 5691 5706 5718 5723 5731 5736 5736 5733 5734 5732 5732 5737 5739 5743 5744 5740 5736 5732 5728 5725 5722 5719 5717 5715 5713 5711 5709 5708 5706 5705 5703 5702 5701 5700 5699 5699 5698 5697 5697 5696 5696 5697 5697 5698
5750 5738 5723 5707 5710 5713 5720 5723 5729 5730 5731 5735 5733 5729 5735 5741 5742 5744 5746 5744 5739 5736 5732 5729 5725 5722 5718 5716 5714 5712 5710 5708 5707 5705 5704 5702 5701 5699 5698 5697 5696 5695 5694 5694 5693 5693 5693 5693 5694
5741 5724 5708 5697 5708 5720 5724 5730 5734 5728 5726 5729 5730 5726 5729 5738 5742 5743 5743 5742 5738 5735 5732 5729 5725 5722 5719 5716 5713 5711 5709 5707 5705 5703 5702 5701 5699 5697 5696 5694 5693 5692 5691 5691 5690 5689 5689 5689 5690
5724 5711 5692 5693 5708 5721 5726 5734 5732 5726 5723 5726 5727 5724 5728 5735 5737 5738 5739 5738 5736 5733 5730 5728 5725 5722 5719 5716 5713 5710 5708 5706 5704 5702 5700 5699 5697 5695 5693 5691 5690 5689 5688 5687 5687 5686 5685 5685 5686
5715 5701 5695 5702 5704 5716 5725 5732 5728 5724 5723 5726 5729 5722 5726 5731 5735 5736 5735 5734 5732 5730 5728 5726 5723 5720 5718 5715 5713 5710 5708 5705 5703 5701 5699 5697 5694 5692 5690 5688 5687 5686 5685 5684 5683 5682 5681 5681 5681
5716 5701 5701 5696 5703 5710 5721 5727 5727 5723 5723 5731 5731 5720 5722 5731 5733 5732 5731 5730 5729 5727 5725 5724 5721 5719 5716 5714 5712 5709 5707 5704 5702 5699 5697 5695 5692 5690 5687 5685 5684 5682 5681 5680 5678 5677 5677 5677 5677
5716 5691 5687 5699 5702 5707 5715 5717 5721 5722 5723 5723 5727 5726 5727 5730 5728 5726 5724 5723 5724 5724 5723 5722 5720 5718 5715 5712 5710 5707 5705 5702 5700 5697 5695 5693 5690 5687 5684 5682 5680 5678 5677 5675 5674 5673 5672 5671 5672
5701 5682 5692 5706 5709 5708 5709 5709 5712 5716 5710 5713 5717 5721 5723 5721 5720 5718 5717 5718 5720 5722 5722 5721 5719 5717 5714 5710 5707 5705 5702 5700 5697 5695 5692 5690 5687 5684 5681 5678 5676 5674 5672 5671 5669 5668 5666 5666 5666
5702 5689 5697 5705 5709 5709 5706 5706 5709 5707 5701 5707 5710 5713 5714 5713 5712 5711 5712 5713 5716 5719 5720 5720 5719 5716 5712 5709 5706 5702 5699 5696 5694 5691 5688 5685 5683 5680 5676 5673 5671 5669 5667 5665 5663 5662 5661 5660 5660
5697 5698 5700 5703 5706 5704 5704 5704 5702 5701 5704 5713 5711 5708 5706 5704 5703 5703 5705 5707 5709 5711 5713 5715 5715 5713 5711 5708 5704 5700 5697 5693 5690 5687 5684 5681 5678 5675 5671 5669 5666 5664 5662 5659 5657 5656 5654 5654 5654
5693 5695 5698 5699 5698 5698 5699 5696 5696 5698 5706 5706 5703 5700 5695 5692 5691 5692 5694 5696 5698 5701 5703 5707 5709 5709 5708 5705 5701 5698 5694 5690 5687 5683 5680 5677 5674 5670 5667 5663 5660 5657 5655 5652 5650 5648 5647 5646 5646
5691 5690 5690 5692 5692 5693 5692 5690 5689 5697 5704 5701 5695 5685 5679 5678 5678 5680 5682 5684 5686 5690 5693 5699 5702 5703 5702 5700 5698 5695 5691 5687 5683 5679 5676 5672 5669 5666 5662 5658 5655 5651 5647 5645 5642 5640 5638 5638 5638
5686 5680 5679 5684 5686 5688 5686 5681 5684 5696 5696 5691 5681 5672 5667 5665 5665 5665 5666 5668 5671 5676 5682 5688 5693 5695 5694 5693 5691 5688 5685 5681 5678 5674 5671 5668 5665 5661 5658 5654 5650 5646 5641 5637 5634 5631 5629 5628 5628
5671 5663 5659 5674 5682 5680 5674 5669 5686 5692 5688 5681 5668 5658 5655 5652 5650 5651 5652 5655 5659 5664 5670 5675 5680 5683 5684 5683 5681 5679 5676 5673 5671 5667 5664 5661 5658 5655 5651 5648 5645 5641 5636 5632 5627 5623 5619 5618 5617
5648 5642 5647 5661 5674 5670 5664 5661 5678 5686 5680 5669 5655 5647 5643 5639 5638 5637 5639 5641 5645 5650 5655 5660 5664 5667 5669 5670 5669 5667 5665 5662 5660 5658 5656 5653 5650 5647 5644 5640 5637 5633 5629 5625 5621 5615 5612 5609 5607
5635 5632 5639 5648 5660 5658 5652 5650 5661 5670 5668 5656 5642 5634 5631 5627 5623 5623 5625 5629 5632 5636 5640 5644 5648 5651 5654 5655 5654 5652 5649 5647 5646 5644 5643 5642 5639 5637 5634 5631 5628 5624 5620 5616 5612 5607 5603 5601 5598
5640 5634 5633 5639 5650 5646 5643 5642 5650 5658 5654 5643 5630 5623 5617 5614 5611 5611 5612 5615 5619 5623 5625 5627 5630 5631 5634 5635 5633 5632 5629 5628 5628 5627 5627 5626 5625 5623 5621 5619 5616 5613 5610 5608 5604 5599 5594 5590 5587
5630 5625 5624 5630 5639 5637 5634 5635 5642 5641 5635 5629 5617 5607 5602 5599 5597 5599 5599 5601 5603 5605 5606 5608 5609 5610 5612 5613 5612 5611 5610 5608 5607 5607 5607 5607 5607 5606 5605 5604 5602 5600 5598 5595 5592 5588 5584 5580 5577
5621 5618 5620 5621 5627 5627 5623 5621 5629 5618 5609 5604 5596 5590 5586 5584 5582 5582 5584 5584 5586 5587 5586 5588 5588 5590 5590 5592 5593 5593 5592 5590 5588 5587 5586 5586 5586 5587 5586 5586 5585 5583 5582 5580 5578 5576 5574 5571 5566
5614 5622 5618 5616 5608 5600 5608 5594 5612 5614 5597 5585 5576 5568 5565 5564 5564 5564 5565 5566 5566 5565 5567 5569 5569 5569 5569 5570 5569 5567 5564 5560 5558 5560 5562 5564 5565 5566 5566 5566 5566 5565 5564 5563 5562 5561 5560 5559 5557
5614 5618 5613 5608 5598 5587 5587 5585 5594 5598 5585 5569 5559 5553 5549 5547 5545 5544 5544 5544 5544 5545 5547 5548 5549 5549 5548 5547 5546 5543 5539 5536 5536 5539 5540 5541 5542 5542 5543 5545 5546 5546 5546 5546 5545 5545 5544 5544 5545
5608 5602 5591 5577 5574 5570 5580 5573 5583 5588 5585 5561 5546 5540 5535 5531 5528 5527 5526 5526 5525 5525 5526 5527 5528 5526 5525 5525 5523 5520 5517 5515 5515 5514 5515 5516 5517 5518 5519 5521 5523 5524 5526 5526 5527 5527 5527 5527 5528
5594 5579 5564 5563 5555 5560 5572 5568 5577 5571 5568 5556 5539 5526 5520 5517 5513 5511 5510 5508 5506 5505 5504 5504 5504 5502 5502 5501 5499 5497 5494 5493 5490 5488 5488 5490 5491 5492 5493 5495 5498 5500 5503 5505 5507 5508 5508 5509 5511
5579 5572 5557 5547 5544 5546 5556 5558 5562 5543 5541 5535 5525 5515 5510 5505 5501 5498 5495 5491 5488 5486 5484 5483 5481 5479 5478 5477 5474 5472 5471 5469 5467 5465 5465 5464 5465 5466 5468 5471 5474 5476 5479 5482 5484 5486 5487 5489 5491
5568 5562 5560 5541 5521 5517 5535 5548 5531 5528 5520 5514 5509 5503 5498 5494 5490 5485 5480 5476 5472 5468 5465 5463 5460 5458 5456 5454 5452 5449 5447 5445 5443 5442 5442 5441 5441 5442 5444 5447 5450 5452 5454 5457 5460 5463 5465 5468 5470
5563 5551 5531 5527 5511 5503 5525 5536 5536 5512 5507 5502 5497 5492 5487 5482 5477 5471 5465 5460 5455 5451 5447 5443 5440 5437 5434 5432 5430 5427 5425 5422 5420 5419 5418 5418 5418 5419 5420 5422 5424 5427 5430 5433 5436 5439 5442 5445 5448
5542 5538 5531 5513 5501 5486 5485 5519 5533 5520 5510 5498 5490 5483 5477 5470 5464 5457 5451 5445 5439 5433 5428 5423 5420 5417 5413 5411 5408 5405 5403 5401 5399 5397 5396 5395 5395 5396 5397 5398 5400 5402 5405 5407 5410 5413 5417 5421 5426
5534 5530 5518 5500 5489 5486 5484 5503 5519 5511 5500 5489 5480 5473 5465 5458 5450 5442 5435 5428 5421 5415 5410 5405 5401 5397 5393 5390 5387 5385 5382 5380 5377 5375 5373 5372 5371 5372 5372 5374 5376 5379 5381 5383 5385 5388 5392 5396 5402